Location: Aragüita
(10.0436°N, 67.8028°W)
Time: 12:01:35
(UTC+00:00)

Meteor 1-23 Rocket - Pass Details

Date: 14 April 2024
Orbit: 842 x 882 km, 81.3° (Epoch: 29 May)

Event Time Altitude Azimuth Distance (km) Brightness Sun altitude
Rises 09:46:49 0° 195° (SSW) 3,465 7.1 -9.1°
Reaches altitude 10° 09:49:19 10° 199° (SSW) 2,523 6.4 -8.5°
Maximum altitude 09:54:54 54° 276° (W) 1,043 4.4 -7.2°
Drops below altitude 10° 10:00:27 10° 353° (N) 2,497 6.7 -5.8°
Sets 10:02:55 0° 357° (N) 3,427 7.5 -5.2°
